星链-2211 (STARLINK-2211 )

导读

STARLINK-2211是美国SpaceX公司星链星座的一员,于2021年3月4日发射升空,属于星链第一代低轨互联网通信卫星。星链项目旨在通过大规模低轨卫星组网,为全球提供高速低延迟的互联网服务,尤其覆盖偏远地区与移动场景。该卫星运行于近地轨道,配备氪离子推进系统用于轨道维持与避碰,设计寿命约5年,服务全球宽带接入,同时星链的快速扩张也引发太空交通与天文观测的相关争议。

Basic Information
目录编号:
47778
目录名称:
STARLINK-2211
国际标识:
2021-017BJ
轨道中心:
EARTH
卫星名称:
星链-2211
卫星全名:
星链-2211 (STARLINK-2211 )
卫星状态:
在轨 (已飞行2017 天)
发射日期:
2021-03-04 UTC
国别 :
美国 (US)
星等 :
--
This satellite is enrolled in the Space Conjunction Data Service (SCDS) and the current flight risk assessment level is: No High Risk
Orbit Information
数据来源 国际轨道数据 AOE轨道数据
星历时间 2026-09-10T23:40:22+0800
23小时前
查看轨道信息
2026-09-07T02:00:00+0800
4天前
查看轨道信息
半长轴 6732.11km 6734.014km
偏心率 0.0003672 0.0002862
轨道倾角 53.155° 53.152°
近地点辐角 319.961° 304.382°
升交点赤经 36.548° 55.837°
平近点角 40.114° 283.707°
近地点 351.5km 353.949km
远地点 356.446km 357.805km
周期 91.619分钟 91.658分钟
每日圈数 15.717229 15.710566
Detailed Information
固有亮度:
5
最大亮度:
2.5
卫星平台:
Starlink V1.0
覆盖范围:
全球
运营商:
太空探索技术公司
运营商所在国:
美国
制造商(研发单位):
太空探索技术公司
制造商所在国:
美国
使用方式:
暂无
Satellite Introduction
星链(Starlink)计划是由太空探索技术公司(SpaceX)提出的一个巨型低轨卫星互联网星座项目,计划在2019年至2024年间在太空搭建由约1.2万颗卫星组成的“星链”网络,其中1584颗将部署在地球上空550千米处的近地轨道,并从2020年开始工作。该卫星仍在工作。
2D Orbit Map
3D Orbit Map
Orbit Altitude Analysis Chart
Orbit Inclination Analysis Chart
Orbit Comprehensive Analysis Chart
View Comprehensive Chart
Conjunction Data List
Event ID Objects TCA Miss Dist (km) Collision Risk Probability Collision Risk Index (CRI) Action
CDM_260911-202504-777806-255722
2026-09-11T
20:25:48+0000
1.971 km
极远距离
1.764177E-6 低风险 0.4
CDM_260913-023604-777806-412321
2026-09-13T
02:36:48+0000
2.998 km
极远距离
9.996082E-7 极低风险 0.35
CDM_260912-001404-777806-255723
2026-09-12T
00:14:39+0000
2.625 km
极远距离
9.979951E-7 极低风险 0.35
Miss Distance Evolution Trend with All Objects
Collision Probability Evolution Trend with All Objects